Location: Chippewa Lake
(41.0698°N, 81.9010°W)
Time: 02:19:59
(UTC+00:00)

BREEZE-M R/B - Pass Details

Date: 09 May 2021
Orbit: 311 x 4501 km, 49.7° (Epoch: 24 June)

Event Time Altitude Azimuth Distance (km) Brightness Sun altitude
Exits shadow 07:46:07 45° 257° (WSW) 1,138 4.0 -22.9°
Maximum altitude 07:47:21 54° 214° (SW) 1,127 3.9 -22.7°
Drops below altitude 10° 07:56:21 10° 141° (SE) 4,091 7.1 -21.7°
Sets 08:01:13 0° 138° (SE) 5,822 7.9 -21.1°
